Wind_Speed
11 12 10 7 4 3 4 9 11 11 10 10 12 13 14 15 14 12 12 13 12 14 15 13 13 12 13 13 15 16 16 16 15 12 10 9 9 9 10 11 12 13 13
11 13 11 8 5 3 1 8 8 9 9 7 9 10 12 13 14 14 13 13 12 14 13 13 13 11 10 10 11 13 14 14 12 11 10 10 10 10 10 11 12 13 14
14 14 12 8 7 8 13 14 10 10 6 6 6 9 9 10 12 12 14 16 15 14 12 12 12 10 9 8 9 9 10 11 10 11 10 10 9 10 11 11 12 13 13
16 16 13 10 11 11 11 11 10 10 6 5 4 7 7 8 10 11 13 14 15 16 14 12 9 8 8 8 7 8 9 10 11 11 12 11 10 10 11 11 12 12 12
19 16 13 11 12 13 13 11 11 7 7 6 6 6 6 6 7 9 12 13 12 13 13 11 10 8 8 7 7 8 9 10 11 11 10 10 11 11 11 11 11 12 12
20 16 15 13 12 12 12 8 5 6 4 7 5 6 6 4 5 7 9 11 11 11 11 9 8 6 7 7 7 8 9 9 9 9 9 9 10 10 10 10 10 10 9
19 17 14 11 11 14 11 8 5 6 8 7 7 7 7 4 4 4 7 8 9 10 9 9 7 6 4 7 7 8 8 9 9 9 10 10 10 10 10 10 10 10 9
19 17 14 11 10 12 12 8 7 6 5 11 10 10 7 4 7 5 7 6 6 7 7 8 8 8 7 7 8 8 9 9 9 9 10 11 12 11 11 11 10 9 8
17 16 13 11 10 12 10 7 8 6 7 11 10 8 8 9 8 7 7 6 6 6 6 7 8 8 9 9 8 9 9 9 9 8 8 9 9 10 10 10 10 9 8
17 16 15 12 10 9 12 12 9 9 11 12 12 6 12 13 8 7 7 8 7 6 6 7 8 9 9 10 10 10 10 9 9 8 8 8 9 9 10 10 9 8 8
19 18 16 13 10 11 12 16 12 10 13 12 11 11 11 11 11 10 8 7 9 8 7 7 8 8 9 9 9 10 10 10 9 9 9 9 8 8 8 8 7 7 6
21 21 18 15 13 12 13 18 15 10 12 12 13 9 5 10 14 11 6 10 9 8 8 10 10 7 10 10 10 9 9 9 9 8 8 7 7 7 7 6 6 6 6
23 21 19 16 13 12 13 17 13 9 10 13 11 10 6 6 10 8 10 12 9 11 10 12 12 15 12 12 10 10 10 10 9 9 9 9 9 8 8 8 8 8 8
21 19 18 18 16 14 15 12 10 9 8 11 13 11 11 10 11 12 10 9 10 11 12 12 8 11 13 12 11 10 11 11 12 11 10 9 9 10 10 10 10 10 12
22 21 21 21 20 17 18 16 14 11 9 10 14 12 11 9 9 12 12 8 8 11 12 10 7 12 12 13 13 14 13 10 12 12 12 14 13 13 13 13 14 15 17
23 26 23 23 22 20 19 19 16 14 11 11 12 11 10 9 9 9 10 9 9 8 8 9 9 10 12 12 14 16 16 12 13 13 13 16 17 15 15 17 17 18 19
23 20 24 22 23 22 22 20 18 19 15 12 12 11 10 11 11 9 10 10 10 9 8 7 8 8 8 10 13 14 17 15 14 14 14 14 16 17 17 19 20 22 23
20 17 21 25 25 23 23 22 20 19 18 16 13 11 11 11 9 10 9 10 10 11 11 10 9 12 13 12 13 18 13 13 18 16 17 18 20 21 22 23 23 25 26
21 16 19 26 27 27 25 21 21 20 19 18 17 15 12 14 12 11 10 10 12 13 12 13 13 13 14 15 16 18 18 17 18 20 22 23 23 24 25 27 26 27 28
19 20 21 24 26 27 26 25 24 25 23 21 20 19 17 18 15 14 14 13 13 14 14 15 15 15 16 15 16 17 18 19 21 22 23 25 25 25 26 27 29 32 32
19 23 23 26 29 28 29 29 29 28 28 25 23 23 22 21 20 19 19 17 17 17 17 17 18 17 19 19 19 19 20 20 23 24 24 26 26 27 29 30 31 33 34
21 19 19 25 27 28 30 29 29 31 29 28 27 25 24 24 24 23 22 23 22 21 22 22 22 23 23 23 22 24 25 24 26 27 26 28 29 31 33 34 35 37 38
22 22 21 20 22 26 29 30 31 30 29 31 30 28 27 27 27 26 25 25 25 26 27 27 27 28 28 29 28 28 30 30 31 32 33 32 36 36 38 38 40 42 43
23 23 21 21 23 24 27 31 33 31 32 33 33 32 31 29 28 26 25 25 26 26 26 27 28 30 29 30 31 31 32 33 33 37 38 34 39 40 42 44 44 46 47
22 23 24 22 23 24 24 28 29 31 32 35 35 33 32 31 30 28 26 27 27 28 29 30 31 31 30 31 32 33 34 35 34 36 37 37 39 39 41 43 46 47 50
21 22 23 23 21 22 26 34 37 38 36 35 35 36 33 33 31 28 26 26 28 31 32 32 32 31 31 30 31 33 37 39 40 38 38 41 39 41 42 44 45 46 48
Wind_Direction
139 149 138 149 142 140 105 110 95 94 77 60 52 52 58 70 82 90 91 91 91 93 103 125 146 138 147 156 164 170 175 177 177 176 180 179 182 177 170 165 164 165 167
141 152 149 151 153 123 157 149 112 102 86 67 57 56 58 66 78 90 100 101 102 102 109 121 132 132 139 154 162 169 174 176 176 177 181 185 185 182 177 176 173 172 170
157 151 159 148 148 119 110 121 115 109 97 92 63 61 57 63 76 84 89 97 99 107 114 111 115 122 133 152 166 174 180 183 183 185 186 184 180 178 175 178 178 175 172
159 158 158 156 156 142 129 129 137 114 113 106 90 85 79 73 76 85 89 90 95 98 98 108 120 131 138 152 165 178 183 179 179 177 176 176 175 177 178 175 173 171 172
159 164 154 157 160 148 134 128 124 122 136 152 128 117 98 92 88 91 93 90 90 93 94 99 107 122 139 152 166 184 190 183 178 175 169 166 170 174 174 170 168 170 171
165 161 157 153 148 147 145 167 171 111 125 158 152 139 117 103 97 96 90 91 89 87 91 96 101 109 129 139 157 174 179 173 169 172 167 163 164 168 170 169 167 167 169
166 168 166 158 159 159 155 165 200 204 219 208 175 153 129 134 118 113 100 95 97 99 103 111 115 126 141 151 160 168 173 167 163 166 166 164 162 164 164 163 166 166 171
172 168 167 163 160 149 149 165 188 200 206 178 173 180 148 149 163 144 121 108 108 109 111 119 137 147 162 169 170 175 177 167 167 167 163 162 161 159 162 164 164 165 169
186 171 169 168 168 156 150 171 181 184 165 163 154 189 192 176 169 159 148 134 137 134 134 133 140 154 164 167 171 175 175 175 173 177 182 178 175 169 171 169 166 167 173
190 177 177 177 179 147 164 180 188 192 204 207 224 197 188 180 194 165 167 182 158 165 160 158 163 164 169 171 172 174 169 170 164 165 167 173 177 179 178 178 179 180 181
192 183 183 185 179 166 177 188 188 199 208 213 201 189 194 193 206 221 237 203 195 180 176 180 186 184 188 186 184 186 181 174 171 173 176 182 187 194 196 192 192 193 200
198 191 189 193 192 186 193 195 195 199 202 188 182 191 230 208 201 195 184 156 175 192 196 195 190 215 199 192 191 192 187 179 175 181 180 185 192 198 205 209 212 217 223
205 201 197 198 201 206 196 186 194 195 202 199 187 203 214 198 203 217 219 195 200 210 208 208 213 220 227 201 196 195 195 192 191 193 202 211 219 228 230 234 238 235 244
210 207 203 205 203 197 181 195 208 201 195 190 203 212 216 215 231 226 236 200 194 191 196 204 235 199 197 206 201 212 214 213 216 218 233 241 240 243 243 243 247 256 264
211 213 212 209 205 202 204 218 218 217 200 192 201 215 223 216 191 192 210 217 204 196 208 214 207 183 202 212 229 237 240 232 234 239 243 246 244 244 248 251 255 261 265
232 219 212 213 213 213 209 214 219 220 212 209 210 218 232 222 206 207 227 230 231 234 232 235 238 215 226 231 242 255 254 234 236 249 260 255 250 253 259 261 263 267 270
235 235 215 213 222 222 217 214 216 216 214 220 223 221 225 226 225 219 229 240 244 245 257 256 261 249 240 250 261 261 261 253 249 255 262 264 261 263 267 268 269 271 272
242 243 222 212 221 221 222 215 221 219 220 217 229 237 236 237 230 240 238 245 259 266 262 259 260 264 257 256 260 275 286 266 252 262 267 266 269 270 271 271 271 272 272
232 236 230 220 224 228 231 227 228 229 228 223 226 228 230 245 238 241 247 251 255 260 263 258 258 258 260 262 264 271 272 271 266 262 265 268 270 270 272 271 270 271 277
232 232 222 225 228 231 230 230 229 229 229 226 225 229 227 236 239 242 246 247 252 260 269 270 271 268 268 269 268 269 270 270 271 269 268 270 272 274 275 278 281 280 284
233 233 228 227 233 234 233 231 231 228 229 227 227 228 229 232 238 239 242 246 249 253 257 262 267 273 275 276 276 275 274 274 274 272 275 278 280 279 278 279 278 281 282
240 241 240 233 233 239 241 242 237 234 230 231 233 231 235 237 239 242 246 249 251 254 256 256 257 258 262 265 270 273 277 279 276 274 275 278 277 278 278 278 280 281 281
240 245 245 243 242 243 246 246 244 239 240 240 240 242 239 242 245 246 251 255 257 259 259 260 261 263 266 266 266 269 271 273 276 278 276 279 280 280 280 282 284 284 285
245 246 249 243 243 243 246 249 249 248 246 243 243 249 250 249 248 251 254 257 260 264 266 268 267 269 270 272 273 273 274 274 275 275 279 282 284 285 287 288 289 289 289
244 253 255 248 245 247 249 249 248 249 248 249 249 247 248 249 251 252 256 260 262 263 263 263 264 270 273 276 276 276 276 277 278 279 280 281 279 281 283 285 287 288 289
239 247 258 256 251 248 261 256 257 253 246 248 251 250 249 250 252 253 254 257 262 266 270 271 272 274 277 277 278 277 279 280 279 277 280 283 286 287 287 287 285 282 287
Height
5908 5909 5910 5912 5912 5913 5913 5913 5914 5914 5914 5915 5915 5915 5913 5911 5909 5908 5907 5906 5906 5906 5908 5911 5914 5917 5918 5920 5922 5923 5925 5927 5929 5931 5933 5935 5936 5938 5938 5939 5940 5942 5943
5907 5908 5910 5912 5912 5913 5912 5913 5914 5915 5916 5917 5916 5916 5915 5914 5913 5912 5910 5909 5909 5909 5911 5913 5916 5918 5921 5922 5924 5925 5927 5929 5930 5932 5934 5935 5936 5938 5939 5939 5940 5942 5943
5906 5908 5910 5911 5912 5913 5913 5914 5915 5915 5918 5918 5918 5918 5918 5917 5916 5915 5914 5912 5911 5912 5914 5916 5917 5919 5921 5924 5926 5928 5929 5931 5932 5933 5934 5936 5937 5937 5938 5939 5940 5941 5942
5906 5908 5910 5910 5912 5913 5914 5915 5916 5916 5918 5919 5920 5919 5920 5920 5918 5918 5917 5916 5915 5915 5916 5917 5919 5920 5922 5925 5927 5930 5931 5933 5933 5934 5934 5936 5937 5938 5939 5940 5940 5941 5942
5905 5908 5910 5911 5912 5913 5914 5915 5917 5917 5918 5920 5921 5921 5921 5922 5921 5920 5919 5918 5918 5918 5918 5920 5922 5923 5924 5926 5929 5931 5933 5934 5935 5935 5935 5937 5938 5939 5940 5940 5941 5941 5942
5904 5908 5910 5911 5912 5914 5914 5916 5917 5918 5919 5920 5921 5921 5922 5922 5922 5922 5921 5920 5921 5921 5920 5922 5924 5925 5927 5928 5931 5933 5935 5935 5935 5937 5937 5938 5939 5939 5940 5941 5941 5942 5943
5904 5907 5909 5910 5912 5913 5915 5916 5917 5918 5919 5920 5921 5922 5922 5923 5923 5924 5923 5923 5923 5924 5925 5924 5926 5927 5930 5931 5933 5935 5936 5936 5937 5938 5939 5939 5939 5940 5940 5941 5941 5942 5942
5903 5905 5908 5909 5912 5913 5913 5914 5915 5917 5917 5918 5920 5922 5922 5924 5924 5925 5925 5926 5926 5926 5927 5927 5928 5929 5932 5934 5935 5937 5938 5938 5938 5939 5940 5940 5940 5940 5940 5941 5941 5942 5943
5903 5905 5907 5909 5911 5912 5912 5914 5915 5917 5918 5920 5921 5921 5922 5924 5925 5926 5926 5927 5928 5928 5929 5930 5931 5932 5933 5935 5937 5939 5940 5939 5939 5939 5941 5941 5941 5941 5941 5941 5941 5942 5942
5901 5904 5906 5907 5909 5910 5913 5915 5917 5917 5918 5920 5921 5921 5923 5924 5926 5927 5927 5927 5928 5930 5931 5932 5933 5934 5936 5937 5937 5939 5939 5940 5939 5939 5941 5942 5942 5942 5942 5942 5942 5941 5941
5898 5901 5903 5905 5907 5909 5912 5914 5916 5917 5917 5919 5920 5921 5923 5924 5926 5927 5927 5927 5928 5931 5932 5933 5935 5936 5937 5937 5938 5939 5939 5939 5939 5939 5940 5941 5942 5943 5943 5943 5942 5942 5942
5895 5898 5901 5904 5905 5907 5910 5911 5914 5916 5916 5918 5919 5921 5921 5922 5925 5927 5927 5928 5929 5930 5932 5934 5936 5936 5937 5937 5938 5940 5940 5939 5939 5940 5941 5941 5942 5943 5943 5943 5942 5942 5942
5894 5896 5899 5901 5904 5906 5907 5909 5912 5914 5915 5917 5918 5919 5920 5921 5924 5925 5927 5928 5928 5929 5931 5933 5934 5935 5936 5937 5937 5938 5939 5939 5939 5939 5940 5941 5941 5942 5942 5942 5942 5941 5941
5893 5895 5898 5900 5902 5903 5906 5908 5911 5912 5914 5915 5916 5917 5918 5919 5920 5922 5925 5926 5927 5929 5930 5932 5931 5931 5934 5935 5936 5937 5938 5938 5938 5938 5938 5939 5939 5940 5940 5940 5940 5940 5940
5891 5893 5896 5898 5899 5901 5903 5906 5909 5910 5912 5912 5914 5915 5916 5918 5918 5919 5922 5925 5926 5928 5929 5930 5930 5930 5931 5933 5935 5936 5937 5936 5936 5936 5936 5937 5937 5937 5938 5938 5937 5937 5937
5889 5891 5893 5896 5898 5900 5902 5903 5905 5907 5910 5912 5913 5914 5915 5917 5918 5919 5920 5921 5924 5926 5927 5928 5928 5928 5929 5930 5931 5932 5933 5932 5932 5933 5934 5934 5935 5934 5934 5935 5934 5934 5934
5886 5887 5889 5894 5897 5899 5901 5901 5902 5905 5907 5909 5911 5912 5914 5915 5917 5917 5918 5920 5921 5922 5924 5925 5925 5925 5926 5927 5928 5928 5929 5929 5930 5930 5931 5931 5931 5931 5931 5930 5930 5929 5928
5882 5883 5887 5890 5893 5896 5898 5899 5901 5902 5904 5905 5908 5909 5912 5914 5915 5916 5916 5917 5919 5920 5921 5922 5924 5924 5924 5924 5924 5925 5925 5926 5927 5928 5928 5927 5927 5927 5926 5925 5925 5923 5922
5880 5881 5883 5886 5890 5892 5895 5897 5899 5901 5902 5903 5905 5906 5908 5910 5912 5913 5914 5914 5915 5916 5917 5918 5919 5921 5921 5921 5921 5922 5922 5922 5923 5924 5923 5922 5922 5921 5920 5919 5918 5916 5915
5875 5878 5879 5883 5885 5887 5890 5892 5894 5896 5898 5899 5901 5903 5904 5905 5907 5909 5910 5911 5912 5913 5914 5915 5915 5916 5917 5917 5918 5918 5919 5919 5918 5918 5917 5915 5915 5914 5913 5912 5911 5910 5909
5870 5872 5875 5878 5881 5884 5885 5886 5888 5890 5893 5894 5896 5897 5899 5901 5903 5905 5906 5908 5909 5909 5910 5911 5911 5912 5912 5912 5913 5913 5912 5913 5911 5910 5910 5910 5909 5907 5905 5904 5903 5902 5901
5865 5867 5870 5872 5876 5879 5881 5883 5884 5886 5889 5890 5891 5892 5894 5896 5898 5900 5901 5903 5904 5905 5905 5906 5906 5906 5906 5907 5907 5907 5907 5907 5905 5904 5905 5903 5902 5900 5897 5897 5895 5894 5892
5859 5862 5865 5867 5870 5873 5875 5878 5879 5881 5885 5887 5887 5887 5888 5889 5891 5893 5895 5896 5898 5898 5900 5901 5901 5900 5901 5900 5901 5901 5901 5900 5899 5897 5897 5896 5893 5892 5889 5888 5886 5884 5881
5853 5855 5857 5859 5862 5865 5869 5871 5874 5878 5879 5880 5881 5882 5884 5885 5886 5887 5889 5890 5891 5891 5892 5893 5894 5894 5894 5894 5894 5894 5893 5893 5892 5888 5887 5890 5885 5882 5880 5877 5875 5872 5870
5847 5849 5851 5852 5854 5858 5861 5864 5866 5869 5872 5873 5874 5876 5878 5879 5879 5881 5883 5883 5884 5884 5884 5885 5886 5886 5886 5886 5885 5885 5884 5883 5882 5880 5879 5878 5876 5875 5872 5869 5864 5862 5857
5840 5842 5845 5846 5848 5851 5855 5856 5857 5859 5862 5864 5867 5870 5871 5873 5874 5874 5875 5876 5877 5876 5877 5877 5877 5877 5877 5877 5876 5874 5874 5873 5871 5871 5869 5867 5866 5863 5863 5859 5855 5849 5846